Regional Weather Roundup
Issued by NWS

Home | Current Version | Previous Version | Text Only | Print | Product List | Glossary Off
Versions: 1 2 3 4 5 6 7 8 9 10 11 12 13 14 15 16 17 18 19 20 21 22 23 24 25 26 27 28 29 30 31 32 33 34 35 36 37 38 39 40 41 42 43 44 45 46 47 48 49 50

628
ASUS43 KLOT 100308
RWRIL

ILLINOIS REGIONAL WEATHER ROUNDUP
NATIONAL WEATHER SERVICE CHICAGO/ROMEOVILLE IL
900 PM CST TUE FEB 09 2016

NOTE: "FAIR" INDICATES FEW OR NO CLOUDS BELOW 12,000 FEET WITH NO
SIGNIFICANT WEATHER AND/OR OBSTRUCTIONS TO VISIBILITY.

* THESE STATIONS ARE NOT UNDER NWS QUALITY CONTROL. THEY ALSO MAY NOT
  REPORT WEATHER SUCH AS PRECIPITATION OR FOG.

ILZ001-002-007-009-015-016-024-100400-
NORTHWEST ILLINOIS

CITY           SKY/WX    TMP DP  RH WIND       PRES   REMARKS
MOLINE         CLEAR     13   3  64 NW12G21   30.08S WCI  -1
STERLING*      CLEAR     12   1  62 W12       29.99F WCI  -2
SAVANNA*       CLEAR     13   3  64 NW7       30.04S WCI   3
$$

ILZ003-004-008-010-011-017-018-100400-
NORTH CENTRAL ILLINOIS

CITY           SKY/WX    TMP DP  RH WIND       PRES   REMARKS
ROCKFORD       FLURRIES  15   4  61 NW10      30.00S WCI   2
FREEPORT*      CLOUDY    14   2  61 NW23      30.01S WCI  -5
ROCHELLE*      CLOUDY    14   4  64 NW9       29.99F WCI   2
DE KALB*       CLOUDY    13   6  72 NW13G18   29.97R WCI  -1
$$

ILZ005-006-012>014-019>023-100400-
NORTHEAST ILLINOIS

CITY           SKY/WX    TMP DP  RH WIND       PRES   REMARKS
CHICAGO-OHARE  FLURRIES  14   9  80 NW13G22   29.94S WCI   0
CHICAGO-MIDWAY FLURRIES  16   7  67 NW13      29.95S WCI   2
AURORA         CLOUDY    15   7  70 NW18      29.97S WCI  -2
LANSING*       FLURRIES  16   9  73 NW13      29.95S WCI   2
JOLIET*        LGT SNOW  16  10  74 NW9G18    29.98S WCI   5
WAUKEGAN       CLOUDY    14   9  80 NW10G17   29.92S WCI   1
DUPAGE AIRPORT FLURRIES  14   6  70 NW15      29.95S WCI  -1
KANKAKEE*      CLOUDY    16   8  71 NW10G22   29.97S WCI   4
WHEELING       CLOUDY    15   8  73 NW13      29.95S WCI   1
MORRIS*        MIX PCPN  15   8  76 NW13G18   29.95S WCI   1
ROMEOVILLE*    FLURRIES  15   8  76 NW13G21   29.97R WCI   1
NORTHERLY ISL    N/A     17  10  74 NW15        N/A  WCI   3
$$

LMZ740>746-100400-
SOUTHERN LAKE MICHIGAN

STATION/POSITION SKY/WX   TEMP    WIND        PRES    VSBY  WAVE
                          AIR SEA DIR/SP/G                  HT/PER
                          (F)     (DEG/KT/KT) (MB)    (MI)  (FT/S)
HARRISON CRIB              17     290/ 20/ 23   N/A
BURNHAM HARBOR             17     290/ 10/ 16   N/A
CALUMET HARBOR             16     290/ 11/ 16 1013.3R
BURNS HARBOR               20     300/ 16/ 22 1013.2F
MICHIGAN CITY              20     270/ 21/ 24   N/A
$$

ILZ025>027-034>036-040-047-049-050-058-095>099-100400-
WEST-CENTRAL ILLINOIS

CITY           SKY/WX    TMP DP  RH WIND       PRES   REMARKS
QUINCY         PTCLDY    15   5  64 NW20      30.12R WCI  -2
MACOMB*        CLEAR     13   7  75 NW20G25   30.12S WCI  -4
JACKSONVILLE*  CLEAR     17   8  65 NW18G29   30.10R WCI   1
PITTSFIELD*    CLEAR     17   8  65 NW18      30.12R WCI   1
$$

ILZ028>032-037-038-041>044-048-051>054-059>061-100400-
CENTRAL ILLINOIS

CITY           SKY/WX    TMP DP  RH WIND       PRES   REMARKS
PONTIAC        CLOUDY    16   9  73 NW16      30.01R WCI   1
BLOOMINGTON    FLURRIES  14   9  81 NW15      30.01S WCI  -1
DECATUR        CLOUDY    17   7  64 NW17G26   30.03S HAZE    WCI   1
PEORIA         CLOUDY    14   3  61 NW10G20   30.06S WCI   1
LACON*         CLOUDY    14   4  64 NW18G25   30.04R WCI  -3
LINCOLN*       LGT SNOW  16  11  81 NW10G22   30.06R WCI   4
SPRINGFIELD    PTCLDY    16   5  62 NW17G25   30.08R WCI   0
TAYLORVILLE    FLURRIES  18  10  73 NW15G22   30.07R WCI   3
$$

ILZ033-039-045-046-055>057-062-063-100400-
EAST-CENTRAL ILLINOIS

CITY           SKY/WX    TMP DP  RH WIND       PRES   REMARKS
CHAMPAIGN      CLOUDY    16  10  77 W17       30.00S WCI   0
RANTOUL*       CLOUDY    18  12  79 NW18      29.99S WCI   2
MATTOON        FLURRIES  16   9  74 NW18      30.01S WCI   0
PARIS*         LGT SNOW  17  14  88 W13G21    30.01S WCI   3
$$

ILZ079-100>102-100400-
SOUTHWEST ILLINOIS

CITY           SKY/WX    TMP DP  RH WIND       PRES   REMARKS
ALTON          CLEAR     19   9  63 NW13G20   30.11R WCI   7
BELLEVILLE     CLEAR     19   9  65 NW12      30.09R WCI   6
CAHOKIA*       CLOUDY    24  10  55 NW16      30.11R WCI  11
SPARTA*        CLOUDY    22  11  63 NW6       30.11R WCI  15
$$

ILZ064>066-069>071-074>076-080>082-084>086-088>090-092>094-100400-
SOUTH-CENTRAL ILLINOIS

CITY           SKY/WX    TMP DP  RH WIND       PRES   REMARKS
CARBONDALE     CLOUDY    16  12  84 CALM      30.10S
EFFINGHAM*     LGT SNOW  19  13  80 W15       30.06S WCI   4
MARION         CLOUDY    19  16  86 CALM      30.10S
MT. VERNON     CLEAR     16   7  67 CALM      30.08S
CENTRALIA*     PTCLDY    19  12  72 NW9       30.08S WCI   9
SALEM*         MOCLDY    19  10  66 NW9       30.07F WCI   9
METROPOLIS*    MOCLDY    22  16  75 NW3       30.12S
$$

ILZ067-068-072-073-078-083-087-091-100400-
SOUTHEAST ILLINOIS

CITY           SKY/WX    TMP DP  RH WIND       PRES   REMARKS
LAWRENCEVILLE  LGT SNOW  19  13  77 NW14      30.05S WCI   6
FLORA*         MOCLDY    20  13  73 NW16      30.07F WCI   6
FAIRFIELD*     PTCLDY    19  10  68 W7        30.07S WCI  10
HARRISBURG*    MOCLDY    18  15  86 CALM      30.10S
ROBINSON*      CLOUDY    18  11  76 NW12      30.05S WCI   5
CARMI*         MOCLDY    20  13  76 NW9       30.08S WCI   9
$$

ABBREVIATIONS USED IN REMARKS
   TC - TEMPERATURE IN CELSIUS
  WCI - WIND CHILL INDEX
   HX - HEAT INDEX
  VSB - VISIBILITY
$$





USA.gov is the U.S. government's official web portal to all federal, state and local government web resources and services.